New Bedford, MA

4:27 AM EDT on May 23, 2018 (GMT -0400)
New Bedford Regional

Weather History for KEWB - January, 2014

Change the Weather History Date:

Friday, January 3, 2014

  Actual Average Record
Temperature  
Mean Temperature 12 °F -  
Max Temperature 24 °F 40 °F 63 °F (2000)
Min Temperature 1 °F 25 °F 1 °F (2014)
Degree Days  
Heating Degree Days 52    
Moisture  
Dew Point 2 °F    
Average Humidity 73    
Maximum Humidity 92    
Minimum Humidity 46    
Precipitation  
Precipitation 0.10 in - - ()
Sea Level Pressure  
Sea Level Pressure 29.87 in    
Wind  
Wind Speed 13 mph (NNW)    
Max Wind Speed 17 mph    
Max Gust Speed 31 mph    
Visibility 4 miles    
Events Fog , Snow    
Averages and records for this station are not official NWS values.
T = Trace of Precipitation, MM = Missing Value Source: NWS Daily Summary

Daily Weather History Graph

Daily Weather History Graph

Search for Another Location

Airport or City:

Astronomy

Jan. 03, 2014 Rise Set
Actual Time 7:11 AM EST 4:25 PM EST
Civil Twilight 6:39 AM EST 4:57 PM EST
Nautical Twilight 6:04 AM EST 5:32 PM EST
Astronomical Twilight 5:31 AM EST 6:05 PM EST
Moon 8:32 AM EST (1/3) 7:34 PM EST (1/3)
Length of Visible Light 10h 17m
Length of Day
9h 14m
Waxing Crescent, 8% of the Moon is Illuminated
Jan 3
Waxing Crescent
Jan 7
First Quarter
Jan 15
Full
Jan 24
Last Quarter
Jan 30
New

Hourly Weather History & Observations

Time (EST) Temp. Windchill Dew Point Humidity Pressure Visibility Wind Dir Wind Speed Gust Speed Precip Events Conditions
12:22 AM 24.1 °F 11.0 °F 21.0 °F 88% 29.68 in 0.5 mi NNE 16.1 mph 26.5 mph 0.01 in Fog , Snow Snow
12:53 AM 21.9 °F 8.2 °F 19.0 °F 89% 29.67 in 0.5 mi NNE 16.1 mph 26.5 mph 0.02 in Fog , Snow Snow
1:53 AM 21.0 °F 6.6 °F 18.0 °F 88% 29.62 in 0.5 mi NNE 17.3 mph 27.6 mph 0.01 in Fog , Snow Snow
2:35 AM 19.9 °F 5.2 °F 16.0 °F 85% 29.62 in 0.8 mi North 17.3 mph 26.5 mph 0.01 in Snow Light Snow
2:53 AM 18.0 °F 5.4 °F 15.1 °F 88% 29.58 in 0.5 mi North 11.5 mph 31.1 mph 0.01 in Fog , Snow Snow
3:53 AM 12.9 °F 0.7 °F 9.0 °F 84% 29.55 in 0.8 mi North 9.2 mph - 0.04 in   Mist
4:53 AM 10.0 °F -2.9 °F 6.1 °F 84% 29.57 in 0.5 mi NNW 9.2 mph 18.4 mph N/A Fog Light Freezing Fog
5:53 AM 7.0 °F -10.4 °F 1.9 °F 80% 29.61 in 0.5 mi North 15.0 mph 28.8 mph 0.00 in Snow Snow
6:05 AM 6.1 °F -12.2 °F 1.9 °F 83% 29.63 in 0.2 mi NNW 16.1 mph 26.5 mph 0.01 in Snow Snow
6:15 AM 6.1 °F -10.2 °F 1.9 °F 83% 29.64 in 0.5 mi NNW 12.7 mph 23.0 mph 0.01 in Snow Snow
6:44 AM 6.1 °F -10.9 °F 1.9 °F 83% 29.66 in 0.8 mi North 13.8 mph 24.2 mph 0.01 in Snow Snow
6:53 AM 6.1 °F -11.6 °F 1.9 °F 83% 29.67 in 0.8 mi North 15.0 mph 26.5 mph 0.01 in Snow Snow
7:12 AM 6.1 °F -10.9 °F 1.9 °F 83% 29.68 in 0.5 mi North 13.8 mph 26.5 mph 0.01 in Snow Snow
7:20 AM 6.1 °F -9.5 °F 1.9 °F 83% 29.68 in 0.8 mi North 11.5 mph 24.2 mph 0.01 in Snow Snow
7:35 AM 6.1 °F -9.5 °F 1.9 °F 83% 29.70 in 0.5 mi NNW 11.5 mph 29.9 mph 0.01 in Snow Snow
7:53 AM 6.1 °F -11.6 °F 1.9 °F 83% 29.72 in 1.0 mi North 15.0 mph 25.3 mph 0.01 in Snow Light Snow
8:06 AM 6.1 °F -10.2 °F 1.0 °F 80% 29.73 in 0.8 mi NNW 12.7 mph 26.5 mph 0.00 in Snow Light Snow
8:17 AM 6.1 °F -11.6 °F -0.0 °F 76% 29.74 in 1.0 mi North 15.0 mph 26.5 mph 0.00 in Snow Light Snow
8:53 AM 6.1 °F -10.9 °F -0.0 °F 76% 29.77 in 1.2 mi North 13.8 mph 24.2 mph 0.00 in   Haze
9:13 AM 7.0 °F -10.4 °F -0.0 °F 73% 29.79 in 2.5 mi NNW 15.0 mph 26.5 mph N/A   Overcast
9:22 AM 7.0 °F -10.4 °F -0.0 °F 73% 29.80 in 4.0 mi NNW 15.0 mph 25.3 mph N/A   Overcast
9:53 AM 8.1 °F -7.7 °F -0.0 °F 70% 29.83 in 7.0 mi NNW 12.7 mph 26.5 mph N/A   Mostly Cloudy
10:50 AM 10.4 °F -3.3 °F 1.4 °F 67% 29.85 in 2.5 mi North 10.4 mph 25.3 mph N/A   Overcast
10:53 AM 10.0 °F -5.9 °F 1.9 °F 70% 29.86 in 2.5 mi North 13.8 mph 21.9 mph N/A   Overcast
10:58 AM 10.0 °F -4.5 °F 1.9 °F 70% 29.86 in 3.0 mi North 11.5 mph 21.9 mph N/A   Overcast
11:53 AM 12.0 °F -3.4 °F 1.9 °F 64% 29.88 in 7.0 mi NNW 13.8 mph 25.3 mph N/A   Mostly Cloudy
12:53 PM 14.0 °F -0.2 °F 3.0 °F 62% 29.92 in 9.0 mi North 12.7 mph 24.2 mph 0.00 in Snow Light Snow
1:53 PM 5.0 °F -9.1 °F 3.0 °F 92% 29.98 in 9.0 mi NW 9.2 mph 23.0 mph 0.00 in   Scattered Clouds
2:53 PM 15.1 °F 3.3 °F 1.0 °F 54% 30.03 in 10.0 mi NNW 9.2 mph 20.7 mph 0.00 in   Partly Cloudy
3:53 PM 15.1 °F 1.8 °F 1.0 °F 54% 30.10 in 10.0 mi NW 11.5 mph 21.9 mph N/A   Clear
4:53 PM 12.0 °F 2.7 °F -0.9 °F 56% 30.14 in 10.0 mi NW 5.8 mph - N/A   Clear
5:53 PM 10.9 °F 0.2 °F -2.9 °F 54% 30.21 in 10.0 mi NW 6.9 mph - N/A   Clear
6:53 PM 9.0 °F -2.2 °F -8.0 °F 46% 30.27 in 10.0 mi NNW 6.9 mph - N/A   Clear
7:53 PM 7.0 °F -5.7 °F -7.1 °F 53% 30.33 in 10.0 mi NW 8.1 mph - N/A   Clear
8:53 PM 6.1 °F -6.8 °F -8.0 °F 53% 30.35 in 10.0 mi NNW 8.1 mph - N/A   Clear
9:53 PM 3.9 °F -8.2 °F -9.9 °F 53% 30.37 in 10.0 mi NW 6.9 mph - N/A   Clear
10:53 PM 1.9 °F -5.6 °F -11.0 °F 55% 30.41 in 10.0 mi WSW 3.5 mph - N/A   Clear
11:53 PM 1.0 °F -8.7 °F -11.0 °F 57% 30.41 in 10.0 mi WNW 4.6 mph - N/A   Clear